| time (UTC) | temp C | wind direction | speed KPH | gust KPH | rain 1hr cm | rain 24hr cm | rain mn cm | humidity % | barometer mb |
| 20260507075936 | 3 | 350 | 0.0 | 0.0 | 0.00 | 0.66 | 0.00 | 91 | 1011.7 |
| 20260507074929 | 3 | 350 | 0.0 | 0.0 | 0.00 | 0.71 | 0.00 | 91 | 1011.8 |
| 20260507073952 | 3 | 350 | 0.0 | 0.0 | 0.00 | 0.74 | 0.00 | 91 | 1011.8 |
| 20260507072922 | 3 | 350 | 0.0 | 0.0 | 0.00 | 0.79 | 0.00 | 91 | 1011.9 |
| 20260507071940 | 3 | 350 | 0.0 | 0.0 | 0.00 | 0.81 | 0.00 | 90 | 1012.0 |
| 20260507070926 | 3 | 350 | 0.0 | 0.0 | 0.00 | 0.89 | 0.00 | 89 | 1011.9 |
| 20260507065923 | 3 | 350 | 0.0 | 0.0 | 0.00 | 0.91 | 0.00 | 88 | 1011.9 |
| 20260507063823 | 4 | 350 | 0.0 | 0.0 | 0.00 | 1.07 | 0.00 | 88 | 1011.7 |
| 20260507062828 | 4 | 350 | 0.0 | 0.0 | 0.00 | 1.17 | 0.00 | 88 | 1011.6 |
| 20260507060655 | 5 | 351 | 0.0 | 0.0 | 0.00 | 1.30 | 0.00 | 87 | 1011.8 |
| 20260507055625 | 5 | 350 | 0.0 | 0.0 | 0.00 | 1.35 | 0.00 | 87 | 1012.0 |
| 20260507054636 | 5 | 350 | 0.0 | 0.0 | 0.00 | 1.37 | 0.00 | 86 | 1012.1 |
| 20260507053643 | 5 | 359 | 0.0 | 0.0 | 0.00 | 1.37 | 0.00 | 87 | 1012.2 |
| 20260507051523 | 5 | 49 | 0.0 | 0.0 | 0.00 | 1.47 | 0.00 | 87 | 1012.3 |
| 20260507050534 | 5 | 120 | 0.0 | 0.0 | 0.00 | 1.50 | 0.00 | 88 | 1012.3 |
| 20260507045542 | 5 | 15 | 0.0 | 0.0 | 0.00 | 1.55 | 0.00 | 89 | 1012.3 |
| 20260507043404 | 5 | 3 | 0.0 | 0.0 | 0.00 | 1.60 | 0.00 | 91 | 1012.3 |
| 20260507041309 | 5 | 347 | 0.0 | 0.0 | 0.00 | 1.68 | 0.00 | 92 | 1012.2 |
| 20260507040320 | 5 | 315 | 0.0 | 0.0 | 0.00 | 1.68 | 0.00 | 92 | 1012.0 |
| 20260507035306 | 5 | 15 | 0.0 | 1.6 | 0.00 | 1.70 | 1.70 | 93 | 1012.0 |
| 20260507031920 | 5 | 180 | 0.0 | 0.0 | 0.00 | 1.83 | 1.70 | 93 | 1011.8 |
| 20260507030912 | 5 | 13 | 0.0 | 0.0 | 0.00 | 1.83 | 1.70 | 93 | 1011.6 |
| 20260507025905 | 5 | 12 | 0.0 | 0.0 | 0.00 | 1.83 | 1.70 | 93 | 1011.6 |
| 20260507024924 | 5 | 10 | 0.0 | 0.0 | 0.00 | 1.85 | 1.70 | 93 | 1011.6 |
| 20260507023857 | 5 | 28 | 0.0 | 1.6 | 0.00 | 1.85 | 1.70 | 93 | 1011.7 |
| 20260507022829 | 5 | 344 | 0.0 | 0.0 | 0.00 | 1.88 | 1.70 | 93 | 1011.7 |
| 20260507021842 | 5 | 354 | 0.0 | 0.0 | 0.00 | 1.91 | 1.70 | 93 | 1011.7 |
| 20260507020839 | 5 | 345 | 0.0 | 0.0 | 0.00 | 1.93 | 1.70 | 93 | 1011.8 |
| 20260507015807 | 5 | 333 | 0.0 | 0.0 | 0.00 | 1.93 | 1.70 | 93 | 1011.9 |
| 20260507014819 | 5 | 350 | 0.0 | 0.0 | 0.00 | 1.96 | 1.70 | 93 | 1011.8 |
| 20260507013753 | 6 | 326 | 0.0 | 3.2 | 0.00 | 1.98 | 1.70 | 93 | 1011.6 |
| 20260507012757 | 6 | 339 | 0.0 | 3.2 | 0.00 | 2.01 | 1.70 | 93 | 1011.6 |
| 20260507011744 | 6 | 82 | 0.0 | 3.2 | 0.00 | 2.01 | 1.70 | 93 | 1011.8 |
| 20260507004407 | 6 | 340 | 0.0 | 0.0 | 0.00 | 2.01 | 1.70 | 91 | 1011.0 |
| 20260507003423 | 6 | 341 | 0.0 | 3.2 | 0.00 | 2.03 | 1.70 | 90 | 1010.5 |
| 20260507002409 | 7 | 329 | 0.0 | 9.7 | 0.00 | 2.06 | 1.70 | 90 | 1010.5 |
| 20260507001343 | 7 | 266 | 0.0 | 9.7 | 0.00 | 2.08 | 1.70 | 90 | 1010.2 |
| 20260507000328 | 8 | 160 | 0.0 | 1.6 | 0.00 | 2.11 | 1.70 | 90 | 1010.2 |
| 20260506235341 | 8 | 340 | 0.0 | 1.6 | 0.00 | 2.13 | 1.70 | 89 | 1010.2 |
| 20260506234323 | 8 | 328 | 0.0 | 3.2 | 0.00 | 2.13 | 1.70 | 88 | 1010.3 |
| 20260506231105 | 9 | 329 | 0.0 | 0.0 | 0.00 | 2.24 | 1.70 | 83 | 1009.5 |
| 20260506230116 | 9 | 330 | 0.0 | 0.0 | 0.00 | 2.29 | 1.70 | 82 | 1009.3 |
| 20260506225050 | 9 | 184 | 0.0 | 0.0 | 0.00 | 2.34 | 1.70 | 81 | 1009.4 |
| 20260506222845 | 9 | 184 | 0.0 | 0.0 | 0.00 | 2.36 | 1.70 | 82 | 1009.3 |
| 20260506221857 | 9 | 184 | 0.0 | 0.0 | 0.00 | 2.36 | 1.70 | 82 | 1009.3 |
| 20260506220849 | 9 | 195 | 0.0 | 0.0 | 0.00 | 2.36 | 1.70 | 83 | 1009.3 |
| 20260506215829 | 9 | 195 | 0.0 | 0.0 | 0.00 | 2.36 | 1.70 | 82 | 1009.1 |
| 20260506214831 | 9 | 181 | 0.0 | 0.0 | 0.00 | 2.36 | 1.70 | 83 | 1008.9 |
| 20260506213821 | 9 | 181 | 0.0 | 0.0 | 0.00 | 2.36 | 1.70 | 81 | 1009.0 |
| 20260506212828 | 9 | 198 | 0.0 | 0.0 | 0.00 | 2.36 | 1.70 | 80 | 1009.3 |
| 20260506211848 | 9 | 1 | 0.0 | 0.0 | 0.00 | 2.36 | 1.70 | 80 | 1009.1 |
| 20260506210814 | 9 | 138 | 0.0 | 0.0 | 0.00 | 2.36 | 1.70 | 81 | 1009.1 |
| 20260506204628 | 9 | 153 | 0.0 | 0.0 | 0.00 | 2.36 | 1.70 | 81 | 1009.0 |
| 20260506203604 | 8 | 356 | 0.0 | 0.0 | 0.00 | 2.36 | 1.70 | 82 | 1009.0 |
| 20260506202549 | 8 | 356 | 0.0 | 0.0 | 0.00 | 2.36 | 1.70 | 80 | 1009.0 |
| 20260506201555 | 9 | 129 | 0.0 | 0.0 | 0.00 | 2.36 | 1.70 | 79 | 1009.0 |
| 20260506195438 | 9 | 330 | 0.0 | 0.0 | 0.00 | 2.36 | 1.70 | 81 | 1009.2 |
| 20260506194452 | 9 | 345 | 0.0 | 0.0 | 0.00 | 2.36 | 1.70 | 85 | 1009.0 |
| 20260506193447 | 8 | 312 | 0.0 | 0.0 | 0.00 | 2.36 | 1.70 | 85 | 1008.8 |
| 20260506192455 | 8 | 338 | 0.0 | 1.6 | 0.00 | 2.36 | 1.70 | 84 | 1008.9 |
| 20260506191439 | 8 | 349 | 0.0 | 1.6 | 0.00 | 2.36 | 1.70 | 88 | 1009.0 |
| 20260506190406 | 8 | 332 | 0.0 | 1.6 | 0.00 | 2.36 | 1.70 | 89 | 1009.1 |
| 20260506185357 | 7 | 349 | 0.0 | 1.6 | 0.00 | 2.36 | 1.70 | 91 | 1009.0 |
| 20260506184340 | 7 | 132 | 0.0 | 1.6 | 0.00 | 2.36 | 1.70 | 92 | 1009.0 |
| 20260506183328 | 7 | 37 | 0.0 | 3.2 | 0.00 | 2.36 | 1.70 | 93 | 1008.9 |
| 20260506182318 | 7 | 347 | 0.0 | 3.2 | 0.00 | 2.36 | 1.70 | 92 | 1009.0 |
| 20260506181317 | 7 | 351 | 0.0 | 3.2 | 0.00 | 2.36 | 1.70 | 92 | 1008.9 |
| 20260506180319 | 7 | 354 | 0.0 | 0.0 | 0.00 | 2.36 | 1.70 | 92 | 1008.9 |
| 20260506175317 | 7 | 333 | 0.0 | 3.2 | 0.00 | 2.36 | 1.70 | 92 | 1009.1 |
| 20260506174323 | 7 | 352 | 0.0 | 1.6 | 0.00 | 2.36 | 1.70 | 92 | 1008.8 |
| 20260506173318 | 7 | 317 | 0.0 | 0.0 | 0.00 | 2.36 | 1.70 | 92 | 1008.4 |
| 20260506172340 | 7 | 348 | 0.0 | 3.2 | 0.00 | 2.36 | 1.70 | 91 | 1008.4 |
| 20260506171328 | 8 | 346 | 0.0 | 1.6 | 0.00 | 2.36 | 1.70 | 93 | 1008.1 |
| 20260506170347 | 7 | 29 | 0.0 | 0.0 | 0.00 | 2.36 | 1.70 | 93 | 1008.0 |
| 20260506165408 | 7 | 354 | 0.0 | 0.0 | 0.00 | 2.36 | 1.70 | 93 | 1008.2 |
| 20260506164428 | 7 | 331 | 0.0 | 0.0 | 0.00 | 2.36 | 1.70 | 93 | 1008.1 |
| 20260506163452 | 7 | 336 | 0.0 | 0.0 | 0.00 | 2.36 | 1.70 | 94 | 1008.1 |
| 20260506162501 | 7 | 148 | 0.0 | 0.0 | 0.00 | 2.36 | 1.70 | 93 | 1007.9 |
| 20260506161451 | 7 | 136 | 0.0 | 0.0 | 0.00 | 2.36 | 1.70 | 94 | 1008.0 |
| 20260506160500 | 7 | 349 | 0.0 | 1.6 | 0.00 | 2.36 | 1.70 | 94 | 1008.0 |
| 20260506155445 | 7 | 348 | 0.0 | 1.6 | 0.00 | 2.36 | 1.70 | 94 | 1008.2 |
| 20260506153246 | 7 | 243 | 0.0 | 0.0 | 0.00 | 2.36 | 1.70 | 95 | 1008.0 |
| 20260506152231 | 7 | 23 | 0.0 | 0.0 | 0.00 | 2.36 | 1.70 | 95 | 1007.9 |
| 20260506151239 | 7 | 104 | 0.0 | 0.0 | 0.00 | 2.36 | 1.70 | 95 | 1007.7 |
| 20260506150207 | 7 | 335 | 0.0 | 0.0 | 0.00 | 2.36 | 1.70 | 95 | 1008.0 |
| 20260506145150 | 7 | 323 | 0.0 | 0.0 | 0.00 | 2.36 | 1.70 | 95 | 1007.8 |
| 20260506144208 | 6 | 10 | 0.0 | 0.0 | 0.00 | 2.34 | 1.68 | 94 | 1007.7 |
| 20260506143207 | 7 | 350 | 0.0 | 0.0 | 0.00 | 2.34 | 1.68 | 95 | 1007.6 |
| 20260506142135 | 6 | 304 | 0.0 | 0.0 | 0.00 | 2.34 | 1.68 | 95 | 1007.6 |
| 20260506141126 | 6 | 18 | 0.0 | 0.0 | 0.00 | 2.34 | 1.68 | 95 | 1007.4 |
| 20260506140124 | 6 | 245 | 0.0 | 0.0 | 0.00 | 2.34 | 1.65 | 95 | 1007.4 |
| 20260506133934 | 6 | 281 | 0.0 | 0.0 | 0.00 | 2.31 | 1.65 | 95 | 1007.5 |
| 20260506132956 | 6 | 87 | 0.0 | 0.0 | 0.00 | 2.31 | 1.63 | 95 | 1007.5 |
| 20260506131934 | 6 | 135 | 0.0 | 3.2 | 0.00 | 2.31 | 1.63 | 95 | 1007.4 |
| 20260506130953 | 6 | 153 | 0.0 | 0.0 | 0.00 | 2.31 | 1.63 | 95 | 1007.1 |
| 20260506130005 | 6 | 280 | 0.0 | 0.0 | 0.00 | 2.31 | 1.63 | 95 | 1007.2 |
| 20260506125010 | 6 | 224 | 0.0 | 0.0 | 0.00 | 2.29 | 1.60 | 95 | 1007.2 |
| 20260506122854 | 6 | 239 | 0.0 | 0.0 | 0.10 | 2.29 | 1.60 | 95 | 1007.4 |
| 20260506121904 | 6 | 271 | 0.0 | 0.0 | 0.13 | 2.29 | 1.60 | 95 | 1007.3 |
| 20260506115739 | 6 | 83 | 0.0 | 0.0 | 0.00 | 2.24 | 1.55 | 95 | 1007.5 |
| 20260506114740 | 6 | 355 | 0.0 | 0.0 | 0.00 | 2.18 | 1.52 | 95 | 1007.3 |
| 20260506113733 | 6 | 348 | 0.0 | 1.6 | 0.00 | 2.18 | 1.52 | 95 | 1007.2 |
| 20260506112731 | 6 | 125 | 0.0 | 1.6 | 0.00 | 2.18 | 1.52 | 95 | 1007.0 |
| 20260506110655 | 6 | 167 | 0.0 | 0.0 | 0.00 | 2.18 | 1.52 | 95 | 1007.0 |
| 20260506105639 | 6 | 153 | 0.0 | 0.0 | 0.10 | 2.16 | 1.50 | 95 | 1006.7 |
| 20260506104638 | 6 | 197 | 0.0 | 0.0 | 0.10 | 2.16 | 1.50 | 95 | 1006.9 |
| 20260506103645 | 6 | 356 | 0.0 | 0.0 | 0.15 | 2.16 | 1.45 | 95 | 1007.2 |
| 20260506102639 | 6 | 3 | 0.0 | 0.0 | 0.15 | 2.11 | 1.45 | 95 | 1007.2 |
| 20260506101702 | 6 | 13 | 0.0 | 0.0 | 0.15 | 2.08 | 1.40 | 95 | 1007.4 |
| 20260506100633 | 6 | 96 | 0.0 | 0.0 | 0.15 | 2.08 | 1.40 | 95 | 1007.5 |
| 20260506095612 | 6 | 11 | 0.0 | 0.0 | 0.20 | 2.03 | 1.37 | 95 | 1007.1 |
| 20260506094552 | 6 | 3 | 0.0 | 0.0 | 0.20 | 1.98 | 1.32 | 95 | 1006.9 |
| 20260506093533 | 6 | 93 | 0.0 | 0.0 | 0.13 | 1.93 | 1.30 | 95 | 1007.1 |
| 20260506092532 | 6 | 314 | 0.0 | 0.0 | 0.10 | 1.93 | 1.27 | 95 | 1007.1 |
| 20260506091519 | 6 | 165 | 0.0 | 6.4 | 0.00 | 1.91 | 1.24 | 95 | 1006.8 |
| 20260506090507 | 6 | 131 | 0.0 | 3.2 | 0.10 | 1.91 | 1.22 | 95 | 1006.6 |
| 20260506085510 | 6 | 270 | 0.0 | 0.0 | 0.23 | 1.91 | 1.22 | 95 | 1006.6 |
| 20260506083301 | 7 | 309 | 0.0 | 0.0 | 0.13 | 1.83 | 1.14 | 95 | 1007.1 |
| 20260506082300 | 7 | 187 | 0.0 | 3.2 | 0.20 | 1.78 | 1.09 | 95 | 1006.7 |
| 20260506081253 | 7 | 136 | 0.0 | 0.0 | 0.23 | 1.75 | 1.09 | 95 | 1007.3 |
| 20260506080219 | 7 | 338 | 0.0 | 0.0 | 0.25 | 1.70 | 1.02 | 95 | 1007.3 |